Regional Weather Roundup
Issued by NWS

Home | Current Version | Previous Version | Graphics & Text | Print | Product List | Glossary On
Versions: 1 2 3 4 5 6 7 8 9 10 11 12 13 14 15 16 17 18 19 20 21 22 23 24 25 26 27 28 29 30 31 32 33 34 35 36 37 38 39 40 41 42 43 44 45 46 47 48 49 50
000
ASUS43 KLSX 261859
RWRMO

WEATHER SUMMARY FOR MISSOURI
NATIONAL WEATHER SERVICE SPRINGFIELD MO
100 PM CST MON JAN 26 2015

NOTE: "FAIR" INDICATES FEW OR NO CLOUDS BELOW 12,000 FEET WITH NO
       SIGNIFICANT WEATHER AND/OR OBSTRUCTIONS TO VISIBILITY.
       CURRENT SKY AND/OR WEATHER CONDITIONS ARE NOT AVAILABLE FOR
       CHILLICOTHE AND FARMINGTON.

MOZ001>031-035>038-043-044-053-054-262000-
...NORTHERN AND WESTERN MISSOURI...

CITY           SKY/WX    TMP DP  RH WIND       PRES   REMARKS
KANSAS CTY INT MOSUNNY   54  36  50 W9        29.90F
KANSAS C DTWN  SUNNY     54  34  46 W9        29.91F
LEE`S SUMMIT   SUNNY     51  34  52 W9G18     29.91F
ST JOSEPH      SUNNY     54  37  52 NW18G24   29.91F
CHILLICOTHE      N/A     51  36  56 W9G21     29.87S
KIRKSVILLE     SUNNY     45  34  65 W17G29    29.83F

$$
MOZ066>068-077>081-088>096-101>105-262000-
...SOUTHWEST MISSOURI...

CITY           SKY/WX    TMP DP  RH WIND       PRES   REMARKS
SPRINGFIELD    SUNNY     52  31  44 SW18      29.95F
JOPLIN         SUNNY     52  32  46 SW20G28   29.97F

$$
MOZ032>034-039>042-045>050-055>058-069>072-262000-
...CENTRAL MISSOURI...

CITY           SKY/WX    TMP DP  RH WIND       PRES   REMARKS
COLUMBIA       PTSUNNY   47  34  60 SW18G32   29.85F
JEFFERSON CITY MOSUNNY   46  31  55 SW16      29.87F
ROLLA          CLOUDY    43  31  62 SW15      29.87F
SEDALIA        SUNNY     49  35  58 SW22G31   29.89F
OSAGE BEACH    SUNNY     48  30  49 SW13G22   29.92F

$$
MOZ051-052-059>065-262000-
...EAST CENTRAL MISSOURI...

CITY           SKY/WX    TMP DP  RH WIND       PRES   REMARKS
ST LOUIS INTL  FLURRIES  36  26  67 W5        29.94R
SPIRIT OF STL  CLOUDY    37  28  70 CALM      29.93F
ST CHARLES     CLOUDY    34  28  79 SE3       29.93S

$$
MOZ072>076-082>087-097>100-106>115-262000-
...SOUTH CENTRAL AND SOUTHEAST MISSOURI...

CITY           SKY/WX    TMP DP  RH WIND       PRES   REMARKS
CAPE GIRARDEAU CLOUDY    36  28  73 W7        30.00F
FARMINGTON     PTSUNNY   37  30  75 MISG      29.94F
POPLAR BLUFF   PTSUNNY   40  28  62 VRB3      30.00F
WEST PLAINS    SUNNY     46  30  53 SW8       29.97F

$$



USA.gov is the U.S. government's official web portal to all federal, state and local government web resources and services.